Weather History for CWRN - November, 2012

Change the Weather History Date:

Saturday, November 10, 2012

  Actual Average Record
Temperature  
Mean Temperature 40 °F -  
Max Temperature 42 °F - - ()
Min Temperature 37 °F - - ()
Degree Days  
Heating Degree Days 26    
Moisture  
Dew Point -    
Average Humidity    
Maximum Humidity    
Minimum Humidity    
Precipitation  
Precipitation 0.00 in - - ()
Sea Level Pressure  
Sea Level Pressure 29.93 in    
Wind  
Wind Speed 20 mph ()    
Max Wind Speed 33 mph    
Max Gust Speed 39 mph    
T = Trace of Precipitation, MM = Missing Value Source: Averaged Metar Reports

Daily Weather History Graph

Daily Weather History Graph

Search for Another Location

Airport or City:

Trip Planner

Search our weather history database for the weather conditions in past years. The results will help you decide how hot, cold, wet, or windy it might be!

Date:

Astronomy

Nov. 10, 2012 Rise Set
Actual Time 6:56 AM AST 4:38 PM AST
Civil Twilight 6:24 AM AST 5:10 PM AST
Nautical Twilight 5:49 AM AST 5:46 PM AST
Astronomical Twilight 5:14 AM AST 6:20 PM AST
Moon 2:46 AM AST (11/10) 2:31 PM AST (11/10)
Length of Visible Light 10h 45m
Length of Day
9h 42m
Waning Crescent, 15% of the Moon is Illuminated
Nov 10
Waning Crescent
Nov 13
New
Nov 20
First Quarter
Nov 28
Full
Dec 6
Last Quarter

Hourly Weather History & Observations

Time (AST) Temp. Windchill Dew Point Humidity Pressure Visibility Wind Dir Wind Speed Gust Speed Precip Events Conditions
12:00 AM 42.3 °F 32.6 °F - N/A% 29.68 in - WNW 24.2 mph 31.1 mph N/A   Unknown
1:00 AM 42.4 °F 33.3 °F - N/A% 29.70 in - West 21.9 mph - N/A   Unknown
2:00 AM 42 °F - - % 29.72 in - WNW 17.3 mph - -  
2:00 AM 41.7 °F 33.4 °F - N/A% 29.72 in - WNW 17.3 mph - N/A   Unknown
3:00 AM 41.0 °F 32.8 °F - N/A% 29.74 in - West 16.1 mph - N/A   Unknown
4:00 AM 40.1 °F 30.7 °F - N/A% 29.75 in - West 19.6 mph 26.5 mph N/A   Unknown
5:00 AM 40.8 °F 31.4 °F - N/A% 29.77 in - West 20.7 mph - N/A   Unknown
6:00 AM 40.3 °F 31.0 °F - N/A% 29.79 in - West 19.6 mph 27.6 mph N/A   Unknown
7:00 AM 39.9 °F 30.2 °F - N/A% 29.82 in - West 20.7 mph 27.6 mph N/A   Unknown
8:00 AM 40 °F - - % 29.85 in - West 17.3 mph - -  
8:00 AM 39.6 °F 30.6 °F - N/A% 29.85 in - West 17.3 mph 27.6 mph N/A   Unknown
9:00 AM 41.2 °F 31.4 °F - N/A% 29.87 in - West 23.0 mph 35.7 mph N/A   Unknown
10:00 AM 41.7 °F 31.4 °F - N/A% 29.87 in - West 26.5 mph 35.7 mph N/A   Unknown
11:00 AM 41.9 °F 30.9 °F - N/A% 29.88 in - West 31.1 mph 39.1 mph N/A   Unknown
12:00 PM 40.5 °F 29.5 °F - N/A% 29.91 in - West 27.6 mph 39.1 mph N/A   Unknown
1:00 PM 42.1 °F 30.8 °F - N/A% 29.94 in - WNW 33.4 mph 39.1 mph N/A   Unknown
2:00 PM 41 °F - - % 29.96 in - NW 29.9 mph - -  
2:00 PM 41.0 °F 29.8 °F - N/A% 29.96 in - NW 29.9 mph 36.8 mph N/A   Unknown
3:00 PM 41.0 °F 31.1 °F - N/A% 29.99 in - WNW 23.0 mph 31.1 mph N/A   Unknown
4:00 PM 39.9 °F 29.0 °F - N/A% 30.02 in - WNW 26.5 mph 32.2 mph N/A   Unknown
5:00 PM 39.2 °F 28.5 °F - N/A% 30.06 in - WNW 24.2 mph 33.4 mph N/A   Unknown
6:00 PM 39.7 °F 29.0 °F - N/A% 30.09 in - West 25.3 mph 33.4 mph N/A   Unknown
7:00 PM 39.2 °F 28.5 °F - N/A% 30.14 in - WNW 24.2 mph 32.2 mph N/A   Unknown
8:00 PM 38 °F - - % 30.17 in - West 23.0 mph - -  
8:00 PM 38.5 °F 27.8 °F - N/A% 30.17 in - West 23.0 mph 32.2 mph N/A   Unknown
9:00 PM 38.3 °F 26.8 °F - N/A% 30.19 in - WNW 26.5 mph 38.0 mph N/A   Unknown
10:00 PM 37.9 °F 27.6 °F - N/A% 30.23 in - WNW 20.7 mph 27.6 mph N/A   Unknown
11:00 PM 37.8 °F 27.4 °F - N/A% 30.25 in - West 20.7 mph - N/A   Unknown